Time,TemperatureF,DewpointF,PressureIn,WindDirection,WindDirectionDegrees,WindSpeedMPH,WindSpeedGustMPH,Humidity,HourlyPrecipIn,Conditions,Clouds,dailyrainin,SolarRadiationWatts/m^2,SoftwareType,DateUTC
2013-02-27 00:00:00,66.0,63.0,29.91,West,269,1.2,6.9,90,0.00,,,0.40,0.0,WeatherDisplay:10.37,2013-02-27 05:00:00,
2013-02-27 00:05:00,66.1,63.1,29.91,WSW,240,1.0,2.3,90,0.00,RA,,0.00,0.0,WeatherDisplay:10.37,2013-02-27 05:05:00,
2013-02-27 00:10:00,66.2,63.2,29.91,West,270,0.3,2.3,90,0.00,,,0.00,0.0,WeatherDisplay:10.37,2013-02-27 05:10:00,
2013-02-27 00:15:00,66.2,63.2,29.91,WSW,243,0.7,2.3,90,0.00,,,0.00,0.0,WeatherDisplay:10.37,2013-02-27 05:15:00,
2013-02-27 00:20:00,66.2,63.5,29.92,West,271,2.1,3.5,91,0.00,,,0.00,0.0,WeatherDisplay:10.37,2013-02-27 05:20:00,
2013-02-27 00:25:00,66.2,63.5,29.91,West,269,1.6,3.5,91,0.00,,,0.00,0.0,WeatherDisplay:10.37,2013-02-27 05:25:00,
2013-02-27 00:30:00,66.2,63.5,29.91,West,281,1.8,4.6,91,0.00,,,0.00,0.0,WeatherDisplay:10.37,2013-02-27 05:30:00,
2013-02-27 00:35:00,66.2,63.5,29.91,West,264,1.3,4.0,91,0.00,,,0.00,0.0,WeatherDisplay:10.37,2013-02-27 05:35:00,
2013-02-27 00:40:00,66.2,63.5,29.91,WSW,258,2.1,4.0,91,0.00,,,0.00,0.0,WeatherDisplay:10.37,2013-02-27 05:40:00,
2013-02-27 00:45:00,66.2,63.5,29.91,WNW,292,3.0,7.0,91,0.00,,,0.00,0.0,WeatherDisplay:10.37,2013-02-27 05:45:00,
2013-02-27 00:50:00,66.2,63.2,29.91,West,261,1.3,3.0,90,0.00,,,0.00,0.0,WeatherDisplay:10.37,2013-02-27 05:50:00,
2013-02-27 00:55:00,66.2,63.2,29.91,SW,220,1.9,5.8,90,0.00,,,0.00,0.0,WeatherDisplay:10.37,2013-02-27 05:55:00,
2013-02-27 01:00:00,66.2,63.2,29.92,West,259,3.2,5.8,90,0.00,,,0.00,0.0,WeatherDisplay:10.37,2013-02-27 06:00:00,
2013-02-27 01:05:00,66.3,63.3,29.91,West,268,1.5,3.5,90,0.00,,,0.00,0.0,WeatherDisplay:10.37,2013-02-27 06:05:00,
2013-02-27 01:10:00,66.1,63.1,29.91,WNW,292,1.7,6.9,90,0.00,,,0.00,0.0,WeatherDisplay:10.37,2013-02-27 06:10:00,
2013-02-27 01:15:00,66.0,63.0,29.91,WSW,247,0.4,3.5,90,0.00,,,0.00,0.0,WeatherDisplay:10.37,2013-02-27 06:15:00,
2013-02-27 01:20:00,66.0,63.0,29.91,West,259,0.1,1.0,90,0.00,,,0.00,0.0,WeatherDisplay:10.37,2013-02-27 06:20:00,
2013-02-27 01:25:00,65.8,62.8,29.91,WNW,292,0.6,2.3,90,0.00,,,0.00,0.0,WeatherDisplay:10.37,2013-02-27 06:25:00,
2013-02-27 01:30:00,65.7,62.7,29.91,WSW,249,0.3,2.3,90,0.00,,,0.00,0.0,WeatherDisplay:10.37,2013-02-27 06:30:00,
2013-02-27 01:35:00,65.6,62.6,29.91,West,260,3.8,6.9,90,0.00,,,0.00,0.0,WeatherDisplay:10.37,2013-02-27 06:35:00,
2013-02-27 01:40:00,65.7,62.7,29.91,WNW,284,0.9,2.3,90,0.00,,,0.00,0.0,WeatherDisplay:10.37,2013-02-27 06:40:00,
2013-02-27 01:45:00,65.6,62.6,29.91,West,259,1.3,1.3,90,0.00,,,0.00,0.0,WeatherDisplay:10.37,2013-02-27 06:45:00,
2013-02-27 01:50:00,65.4,62.4,29.91,West,268,0.0,2.3,90,0.00,,,0.00,0.0,WeatherDisplay:10.37,2013-02-27 06:50:00,
2013-02-27 01:55:00,65.4,62.4,29.91,West,265,0.3,1.2,90,0.00,,,0.00,0.0,WeatherDisplay:10.37,2013-02-27 06:55:00,
2013-02-27 02:00:00,65.4,62.4,29.91,SW,235,0.3,2.0,90,0.00,,,0.00,0.0,WeatherDisplay:10.37,2013-02-27 07:00:00,
2013-02-27 02:05:00,65.2,62.2,29.91,WNW,287,1.7,4.6,90,0.00,,,0.00,0.0,WeatherDisplay:10.37,2013-02-27 07:05:00,
2013-02-27 02:10:00,65.2,62.2,29.91,SSW,211,0.8,2.3,90,0.00,,,0.00,0.0,WeatherDisplay:10.37,2013-02-27 07:10:00,
2013-02-27 02:15:00,65.0,62.0,29.90,West,271,0.0,1.2,90,0.00,,,0.00,0.0,WeatherDisplay:10.37,2013-02-27 07:15:00,
2013-02-27 02:20:00,64.9,61.9,29.90,SSW,200,0.5,1.2,90,0.00,,,0.00,0.0,WeatherDisplay:10.37,2013-02-27 07:20:00,
2013-02-27 02:25:00,64.8,61.8,29.90,WSW,241,0.2,1.2,90,0.00,,,0.00,0.0,WeatherDisplay:10.37,2013-02-27 07:25:00,
2013-02-27 02:30:00,64.6,61.6,29.91,WSW,241,0.1,1.2,90,0.00,,,0.00,0.0,WeatherDisplay:10.37,2013-02-27 07:30:00,
2013-02-27 02:35:00,64.4,61.4,29.91,WSW,244,0.5,2.3,90,0.00,,,0.00,0.0,WeatherDisplay:10.37,2013-02-27 07:35:00,
2013-02-27 02:40:00,64.4,61.1,29.91,WSW,254,0.3,3.5,89,0.00,,,0.00,0.0,WeatherDisplay:10.37,2013-02-27 07:40:00,
2013-02-27 02:45:00,64.4,61.1,29.90,WSW,254,0.4,2.3,89,0.00,,,0.00,0.0,WeatherDisplay:10.37,2013-02-27 07:45:00,
2013-02-27 02:50:00,64.3,61.3,29.90,WSW,254,0.5,2.3,90,0.00,,,0.00,0.0,WeatherDisplay:10.37,2013-02-27 07:50:00,
2013-02-27 02:55:00,64.3,61.3,29.90,West,275,0.1,3.5,90,0.00,,,0.00,0.0,WeatherDisplay:10.37,2013-02-27 07:55:00,
2013-02-27 03:00:00,64.1,61.4,29.90,West,275,0.0,0.0,91,0.00,,,0.00,0.0,WeatherDisplay:10.37,2013-02-27 08:00:00,
2013-02-27 03:05:00,64.0,61.3,29.90,West,271,0.0,0.0,91,0.00,,,0.00,0.0,WeatherDisplay:10.37,2013-02-27 08:05:00,
2013-02-27 03:10:00,64.0,61.3,29.90,West,271,0.1,2.3,91,0.00,,,0.00,0.0,WeatherDisplay:10.37,2013-02-27 08:10:00,
2013-02-27 03:15:00,64.0,61.3,29.90,West,271,0.0,0.0,91,0.00,,,0.00,0.0,WeatherDisplay:10.37,2013-02-27 08:15:00,
2013-02-27 03:20:00,64.0,61.3,29.90,West,271,0.0,0.0,91,0.00,,,0.00,0.0,WeatherDisplay:10.37,2013-02-27 08:20:00,
2013-02-27 03:25:00,64.1,61.7,29.90,West,273,0.5,2.3,92,0.00,,,0.00,0.0,WeatherDisplay:10.37,2013-02-27 08:25:00,
2013-02-27 03:30:00,64.2,61.8,29.89,West,262,0.0,1.2,92,0.00,,,0.00,0.0,WeatherDisplay:10.37,2013-02-27 08:30:00,
2013-02-27 03:35:00,64.1,61.4,29.89,West,259,0.0,0.0,91,0.00,,,0.00,0.0,WeatherDisplay:10.37,2013-02-27 08:35:00,
2013-02-27 03:40:00,64.1,61.4,29.90,WSW,258,0.0,0.0,91,0.00,,,0.00,0.0,WeatherDisplay:10.37,2013-02-27 08:40:00,
2013-02-27 03:45:00,64.0,61.3,29.90,West,279,0.2,3.5,91,0.00,,,0.00,0.0,WeatherDisplay:10.37,2013-02-27 08:45:00,
2013-02-27 03:50:00,64.0,61.3,29.90,West,279,0.1,1.2,91,0.00,,,0.00,0.0,WeatherDisplay:10.37,2013-02-27 08:50:00,
2013-02-27 03:55:00,63.9,60.9,29.90,WNW,296,0.8,3.5,90,0.00,,,0.00,0.0,WeatherDisplay:10.37,2013-02-27 08:55:00,
2013-02-27 04:00:00,63.8,60.8,29.90,WNW,296,0.0,0.0,90,0.00,,,0.00,0.0,WeatherDisplay:10.37,2013-02-27 09:00:00,
2013-02-27 04:05:00,63.6,60.3,29.91,WNW,296,0.0,0.0,89,0.00,,,0.00,0.0,WeatherDisplay:10.37,2013-02-27 09:05:00,
2013-02-27 04:10:00,63.5,60.2,29.90,WNW,303,0.0,0.0,89,0.00,,,0.00,0.0,WeatherDisplay:10.37,2013-02-27 09:10:00,
2013-02-27 04:15:00,63.3,60.0,29.90,WNW,302,0.0,0.0,89,0.00,,,0.00,0.0,WeatherDisplay:10.37,2013-02-27 09:15:00,
2013-02-27 04:20:00,63.1,60.1,29.91,WNW,302,0.0,0.0,90,0.00,,,0.00,0.0,WeatherDisplay:10.37,2013-02-27 09:20:00,
2013-02-27 04:25:00,62.9,59.9,29.91,WNW,302,0.0,0.0,90,0.00,,,0.00,0.0,WeatherDisplay:10.37,2013-02-27 09:25:00,
2013-02-27 04:30:00,62.8,60.1,29.91,WNW,303,0.0,0.0,91,0.00,,,0.00,0.0,WeatherDisplay:10.37,2013-02-27 09:30:00,
2013-02-27 04:35:00,62.8,60.1,29.91,WNW,302,0.0,0.0,91,0.00,,,0.00,0.0,WeatherDisplay:10.37,2013-02-27 09:35:00,
2013-02-27 04:40:00,62.5,60.1,29.91,WNW,302,0.0,0.0,92,0.00,,,0.00,0.0,WeatherDisplay:10.37,2013-02-27 09:40:00,
2013-02-27 04:45:00,62.3,59.9,29.91,WNW,303,0.0,0.0,92,0.00,,,0.00,0.0,WeatherDisplay:10.37,2013-02-27 09:45:00,
2013-02-27 04:50:00,62.1,59.7,29.92,WNW,303,0.0,0.0,92,0.00,,,0.00,0.0,WeatherDisplay:10.37,2013-02-27 09:50:00,
2013-02-27 04:55:00,62.0,60.0,29.91,WNW,302,0.0,0.0,93,0.00,,,0.00,0.0,WeatherDisplay:10.37,2013-02-27 09:55:00,
2013-02-27 05:00:00,62.1,60.4,29.92,WNW,303,0.0,0.0,94,0.00,,,0.00,0.0,WeatherDisplay:10.37,2013-02-27 10:00:00,
2013-02-27 05:05:00,62.1,60.4,29.92,WNW,302,0.0,0.0,94,0.00,,,0.00,0.0,WeatherDisplay:10.37,2013-02-27 10:05:00,
2013-02-27 05:10:00,62.1,60.4,29.92,WNW,302,0.0,0.0,94,0.00,,,0.00,0.0,WeatherDisplay:10.37,2013-02-27 10:10:00,
2013-02-27 05:15:00,62.2,60.5,29.92,SW,229,0.2,2.0,94,0.00,,,0.00,0.0,WeatherDisplay:10.37,2013-02-27 10:15:00,
2013-02-27 05:20:00,62.5,60.7,29.92,SW,224,0.0,0.0,94,0.00,,,0.00,0.0,WeatherDisplay:10.37,2013-02-27 10:20:00,
2013-02-27 05:25:00,62.8,60.7,29.92,SW,224,0.0,0.0,93,0.00,,,0.00,0.0,WeatherDisplay:10.37,2013-02-27 10:25:00,
2013-02-27 05:30:00,62.9,60.8,29.92,North,360,0.3,2.3,93,0.00,,,0.00,0.0,WeatherDisplay:10.37,2013-02-27 10:30:00,
2013-02-27 05:35:00,63.0,60.9,29.92,North,350,2.3,3.5,93,0.00,,,0.00,0.0,WeatherDisplay:10.37,2013-02-27 10:35:00,
2013-02-27 05:40:00,63.1,61.0,29.92,North,355,0.1,1.2,93,0.00,,,0.00,0.0,WeatherDisplay:10.37,2013-02-27 10:40:00,
2013-02-27 05:46:00,62.9,60.8,29.92,NNE,17,0.7,1.2,93,0.00,,,0.00,0.0,WeatherDisplay:10.37,2013-02-27 10:46:00,
2013-02-27 05:51:00,62.8,60.7,29.93,NNE,17,0.0,0.0,93,0.00,,,0.00,0.0,WeatherDisplay:10.37,2013-02-27 10:51:00,
2013-02-27 05:56:00,62.5,60.4,29.93,North,9,0.7,2.0,93,0.00,,,0.00,0.0,WeatherDisplay:10.37,2013-02-27 10:56:00,
2013-02-27 06:01:00,62.4,60.7,29.93,West,280,0.0,0.0,94,0.00,,,0.00,0.0,WeatherDisplay:10.37,2013-02-27 11:01:00,
2013-02-27 06:06:00,62.3,60.2,29.92,West,279,0.0,0.0,93,0.00,,,0.00,0.0,WeatherDisplay:10.37,2013-02-27 11:06:00,
2013-02-27 06:11:00,62.2,60.2,29.93,West,279,0.0,0.0,93,0.00,,,0.00,0.0,WeatherDisplay:10.37,2013-02-27 11:11:00,
2013-02-27 06:16:00,61.7,59.7,29.93,West,279,0.0,0.0,93,0.00,,,0.00,0.0,WeatherDisplay:10.37,2013-02-27 11:16:00,
2013-02-27 06:21:00,61.4,60.0,29.93,West,279,0.0,0.0,95,0.00,,,0.00,0.0,WeatherDisplay:10.37,2013-02-27 11:21:00,
2013-02-27 06:26:00,61.3,59.9,29.92,West,279,0.0,0.0,95,0.00,,,0.00,0.0,WeatherDisplay:10.37,2013-02-27 11:26:00,
2013-02-27 06:31:00,60.9,59.5,29.93,West,279,0.0,0.0,95,0.00,,,0.00,0.0,WeatherDisplay:10.37,2013-02-27 11:31:00,
2013-02-27 06:36:00,60.5,59.4,29.93,West,279,0.0,0.0,96,0.00,,,0.00,0.0,WeatherDisplay:10.37,2013-02-27 11:36:00,
2013-02-27 06:41:00,60.2,59.1,29.93,West,279,0.0,0.0,96,0.00,,,0.00,0.0,WeatherDisplay:10.37,2013-02-27 11:41:00,
2013-02-27 06:46:00,60.1,59.2,29.93,West,279,0.0,0.0,97,0.00,,,0.00,0.0,WeatherDisplay:10.37,2013-02-27 11:46:00,
2013-02-27 06:51:00,59.8,58.9,29.93,West,279,0.0,0.0,97,0.00,,,0.00,0.0,WeatherDisplay:10.37,2013-02-27 11:51:00,
2013-02-27 06:56:00,59.9,59.0,29.94,West,279,0.0,0.0,97,0.00,,,0.00,0.0,WeatherDisplay:10.37,2013-02-27 11:56:00,
2013-02-27 07:01:00,59.7,58.8,29.93,West,279,0.0,0.0,97,0.00,,,0.00,7.0,WeatherDisplay:10.37,2013-02-27 12:01:00,
2013-02-27 07:06:00,59.7,58.8,29.93,West,279,0.0,0.0,97,0.00,,,0.00,12.0,WeatherDisplay:10.37,2013-02-27 12:06:00,
2013-02-27 07:11:00,59.5,58.6,29.94,West,279,0.0,0.0,97,0.00,,,0.00,16.0,WeatherDisplay:10.37,2013-02-27 12:11:00,
2013-02-27 07:16:00,59.4,58.5,29.93,West,279,0.0,0.0,97,0.00,,,0.00,19.0,WeatherDisplay:10.37,2013-02-27 12:16:00,
2013-02-27 07:21:00,59.2,58.3,29.93,West,279,0.0,0.0,97,0.00,,,0.00,21.0,WeatherDisplay:10.37,2013-02-27 12:21:00,
2013-02-27 07:26:00,59.3,58.7,29.93,West,279,0.0,0.0,98,0.00,,,0.00,25.0,WeatherDisplay:10.37,2013-02-27 12:26:00,
2013-02-27 07:31:00,59.5,58.9,29.94,West,279,0.0,0.0,98,0.00,,,0.00,30.0,WeatherDisplay:10.37,2013-02-27 12:31:00,
2013-02-27 07:36:00,59.5,58.9,29.94,West,279,0.0,0.0,98,0.00,,,0.00,39.0,WeatherDisplay:10.37,2013-02-27 12:36:00,
2013-02-27 07:41:00,59.6,59.0,29.94,West,280,0.0,0.0,98,0.00,,,0.00,54.0,WeatherDisplay:10.37,2013-02-27 12:41:00,
2013-02-27 07:46:00,60.0,59.4,29.95,West,280,0.0,0.0,98,0.00,,,0.00,56.0,WeatherDisplay:10.37,2013-02-27 12:46:00,
2013-02-27 07:51:00,60.5,59.6,29.96,West,279,0.0,1.2,97,0.00,,,0.00,114.0,WeatherDisplay:10.37,2013-02-27 12:51:00,
2013-02-27 07:56:00,61.5,60.3,29.96,WNW,284,0.5,3.5,96,0.00,,,0.00,146.0,WeatherDisplay:10.37,2013-02-27 12:56:00,
2013-02-27 08:01:00,62.3,60.6,29.96,North,350,0.4,2.3,94,0.00,OVC,,0.00,139.0,WeatherDisplay:10.37,2013-02-27 13:01:00,
2013-02-27 08:06:00,63.1,61.0,29.95,NW,325,1.1,3.5,93,0.00,OVC,,0.00,190.0,WeatherDisplay:10.37,2013-02-27 13:06:00,
2013-02-27 08:11:00,63.8,61.4,29.96,NNW,333,0.8,3.5,92,0.00,OVC,,0.00,230.0,WeatherDisplay:10.37,2013-02-27 13:11:00,
2013-02-27 08:16:00,64.4,61.7,29.97,West,262,1.2,3.5,91,0.00,OVC,,0.00,244.0,WeatherDisplay:10.37,2013-02-27 13:16:00,
2013-02-27 08:21:00,64.9,61.6,29.97,North,360,0.5,2.3,89,0.00,OVC,,0.00,267.0,WeatherDisplay:10.37,2013-02-27 13:21:00,
2013-02-27 08:26:00,65.3,62.0,29.97,NW,321,0.0,0.0,89,0.00,OVC,,0.00,276.0,WeatherDisplay:10.37,2013-02-27 13:26:00,
2013-02-27 08:31:00,65.8,62.1,29.97,NNW,342,2.0,3.5,88,0.00,OVC,,0.00,146.0,WeatherDisplay:10.37,2013-02-27 13:31:00,
2013-02-27 08:36:00,65.7,61.4,29.97,SW,222,0.7,3.5,86,0.00,OVC,,0.00,202.0,WeatherDisplay:10.37,2013-02-27 13:36:00,
2013-02-27 08:41:00,66.3,62.0,29.97,NNW,334,1.7,3.5,86,0.00,OVC,,0.00,445.0,WeatherDisplay:10.37,2013-02-27 13:41:00,
2013-02-27 08:46:00,66.9,61.9,29.98,North,351,2.5,4.6,84,0.00,OVC,,0.00,165.0,WeatherDisplay:10.37,2013-02-27 13:46:00,
2013-02-27 08:51:00,66.5,61.2,29.98,NW,323,0.5,2.3,83,0.00,OVC,,0.00,160.0,WeatherDisplay:10.37,2013-02-27 13:51:00,
2013-02-27 08:56:00,66.3,61.0,29.99,East,84,0.5,3.5,83,0.00,OVC,,0.00,144.0,WeatherDisplay:10.37,2013-02-27 13:56:00,
2013-02-27 09:01:00,66.0,61.0,29.99,NNW,348,1.9,3.5,84,0.00,OVC,,0.00,204.0,WeatherDisplay:10.37,2013-02-27 14:01:00,
2013-02-27 09:06:00,66.3,61.3,29.99,NNW,328,2.3,6.9,84,0.00,OVC,,0.00,223.0,WeatherDisplay:10.37,2013-02-27 14:06:00,
2013-02-27 09:11:00,66.5,61.5,29.99,North,350,0.7,5.8,84,0.00,OVC,,0.00,469.0,WeatherDisplay:10.37,2013-02-27 14:11:00,
2013-02-27 09:16:00,66.6,60.9,29.99,NNW,347,3.4,5.8,82,0.00,OVC,,0.00,192.0,WeatherDisplay:10.37,2013-02-27 14:16:00,
2013-02-27 09:21:00,66.5,61.2,29.99,NNE,32,3.5,6.9,83,0.00,OVC,,0.00,274.0,WeatherDisplay:10.37,2013-02-27 14:21:00,
2013-02-27 09:26:00,66.5,60.5,30.00,NW,326,0.7,4.6,81,0.00,OVC,,0.00,232.0,WeatherDisplay:10.37,2013-02-27 14:26:00,
2013-02-27 09:31:00,66.5,60.8,30.00,North,351,1.1,5.8,82,0.00,OVC,,0.00,294.0,WeatherDisplay:10.37,2013-02-27 14:31:00,
2013-02-27 09:36:00,67.5,61.8,29.99,NNW,331,2.0,6.9,82,0.00,OVC,,0.00,643.0,WeatherDisplay:10.37,2013-02-27 14:36:00,
2013-02-27 09:41:00,67.5,61.1,30.00,NNW,333,4.1,9.2,80,0.00,OVC,,0.00,200.0,WeatherDisplay:10.37,2013-02-27 14:41:00,
2013-02-27 09:47:00,66.8,60.4,30.00,NW,316,5.1,9.0,80,0.00,OVC,,0.00,269.0,WeatherDisplay:10.37,2013-02-27 14:47:00,
2013-02-27 09:52:00,67.0,61.0,30.00,NW,323,1.7,4.6,81,0.00,OVC,,0.00,320.0,WeatherDisplay:10.37,2013-02-27 14:52:00,
2013-02-27 09:57:00,67.4,61.0,30.00,NNE,30,3.2,5.8,80,0.00,OVC,,0.00,652.0,WeatherDisplay:10.37,2013-02-27 14:57:00,
2013-02-27 10:02:00,67.5,60.8,29.99,NNW,333,1.7,7.0,79,0.00,OVC,,0.00,304.0,WeatherDisplay:10.37,2013-02-27 15:02:00,
2013-02-27 10:07:00,67.7,60.6,30.00,North,355,3.3,4.6,78,0.00,OVC,,0.00,561.0,WeatherDisplay:10.37,2013-02-27 15:07:00,
2013-02-27 10:12:00,67.5,60.0,30.00,NNW,330,0.8,3.5,77,0.00,OVC,,0.00,260.0,WeatherDisplay:10.37,2013-02-27 15:12:00,
2013-02-27 10:17:00,67.9,60.1,30.00,North,5,6.7,9.2,76,0.00,OVC,,0.00,677.0,WeatherDisplay:10.37,2013-02-27 15:17:00,
2013-02-27 10:22:00,67.9,60.1,30.00,NNW,344,1.7,4.6,76,0.00,OVC,,0.00,295.0,WeatherDisplay:10.37,2013-02-27 15:22:00,
2013-02-27 10:27:00,67.9,60.4,30.00,NNW,346,3.4,5.8,77,0.00,OVC,,0.00,318.0,WeatherDisplay:10.37,2013-02-27 15:27:00,
2013-02-27 10:32:00,67.6,59.4,30.00,North,355,4.7,6.9,75,0.00,OVC,,0.00,359.0,WeatherDisplay:10.37,2013-02-27 15:32:00,
2013-02-27 10:37:00,67.5,59.7,30.00,NNE,26,1.7,5.8,76,0.00,OVC,,0.00,229.0,WeatherDisplay:10.37,2013-02-27 15:37:00,
2013-02-27 10:42:00,67.4,59.6,30.01,NNE,12,3.5,4.6,76,0.00,OVC,,0.00,278.0,WeatherDisplay:10.37,2013-02-27 15:42:00,
2013-02-27 10:47:00,67.7,59.1,30.00,WNW,294,1.5,3.5,74,0.00,OVC,,0.00,399.0,WeatherDisplay:10.37,2013-02-27 15:47:00,
2013-02-27 10:52:00,68.2,59.6,30.00,NNW,330,5.5,8.1,74,0.00,OVC,,0.00,671.0,WeatherDisplay:10.37,2013-02-27 15:52:00,
2013-02-27 10:57:00,67.9,58.9,30.00,NNW,331,4.0,4.6,73,0.00,OVC,,0.00,461.0,WeatherDisplay:10.37,2013-02-27 15:57:00,
2013-02-27 11:02:00,68.2,59.2,30.00,North,355,2.3,5.0,73,0.00,OVC,,0.00,422.0,WeatherDisplay:10.37,2013-02-27 16:02:00,
2013-02-27 11:07:00,68.3,59.7,30.00,WNW,288,0.7,2.3,74,0.00,OVC,,0.00,383.0,WeatherDisplay:10.37,2013-02-27 16:07:00,
2013-02-27 11:12:00,68.5,59.1,30.01,WNW,294,0.9,4.6,72,0.00,OVC,,0.00,294.0,WeatherDisplay:10.37,2013-02-27 16:12:00,
2013-02-27 11:17:00,68.2,58.8,30.00,NNE,13,3.3,7.0,72,0.00,OVC,,0.00,517.0,WeatherDisplay:10.37,2013-02-27 16:17:00,
2013-02-27 11:22:00,68.8,59.4,30.00,NNW,338,2.1,5.0,72,0.00,OVC,,0.00,900.0,WeatherDisplay:10.37,2013-02-27 16:22:00,
2013-02-27 11:27:00,68.8,59.0,30.00,NW,307,4.2,5.8,71,0.00,OVC,,0.00,318.0,WeatherDisplay:10.37,2013-02-27 16:27:00,
2013-02-27 11:32:00,68.6,58.8,30.00,North,5,1.9,5.8,71,0.00,OVC,,0.00,958.0,WeatherDisplay:10.37,2013-02-27 16:32:00,
2013-02-27 11:37:00,69.1,58.5,30.00,North,355,1.5,4.6,69,0.00,OVC,,0.00,939.0,WeatherDisplay:10.37,2013-02-27 16:37:00,
2013-02-27 11:42:00,69.8,58.8,30.00,North,355,2.8,4.6,68,0.00,OVC,,0.00,937.0,WeatherDisplay:10.37,2013-02-27 16:42:00,
2013-02-27 11:47:00,69.6,58.6,29.99,West,278,2.5,6.0,68,0.00,OVC,,0.00,851.0,WeatherDisplay:10.37,2013-02-27 16:47:00,
2013-02-27 11:52:00,69.8,58.8,29.99,WSW,238,3.1,6.9,68,0.00,OVC,,0.00,916.0,WeatherDisplay:10.37,2013-02-27 16:52:00,
2013-02-27 11:57:00,69.9,58.9,29.99,WNW,286,1.8,4.6,68,0.00,OVC,,0.00,448.0,WeatherDisplay:10.37,2013-02-27 16:57:00,
2013-02-27 12:02:00,69.8,57.9,29.99,West,271,2.2,4.6,66,0.00,OVC,,0.00,956.0,WeatherDisplay:10.37,2013-02-27 17:02:00,
2013-02-27 12:07:00,70.1,58.2,29.99,West,269,4.5,6.9,66,0.00,OVC,,0.00,912.0,WeatherDisplay:10.37,2013-02-27 17:07:00,
2013-02-27 12:12:00,70.8,60.1,29.99,West,263,2.2,4.6,69,0.00,OVC,,0.00,807.0,WeatherDisplay:10.37,2013-02-27 17:12:00,
2013-02-27 12:17:00,69.9,58.4,29.99,North,350,1.3,3.5,67,0.00,OVC,,0.00,343.0,WeatherDisplay:10.37,2013-02-27 17:17:00,
2013-02-27 12:22:00,69.5,58.5,29.99,NE,39,1.4,2.3,68,0.00,OVC,,0.00,691.0,WeatherDisplay:10.37,2013-02-27 17:22:00,
2013-02-27 12:27:00,70.3,58.4,29.99,SW,215,2.7,4.6,66,0.00,OVC,,0.00,851.0,WeatherDisplay:10.37,2013-02-27 17:27:00,
2013-02-27 12:32:00,69.9,58.4,29.99,North,9,2.8,4.6,67,0.00,OVC,,0.00,872.0,WeatherDisplay:10.37,2013-02-27 17:32:00,
2013-02-27 12:37:00,71.2,59.3,29.99,West,262,1.1,5.8,66,0.00,OVC,,0.00,761.0,WeatherDisplay:10.37,2013-02-27 17:37:00,
2013-02-27 12:42:00,70.8,58.4,29.99,NNW,340,2.9,3.5,65,0.00,OVC,,0.00,819.0,WeatherDisplay:10.37,2013-02-27 17:42:00,
2013-02-27 12:47:00,70.8,59.3,29.99,NW,306,1.6,4.6,67,0.00,OVC,,0.00,807.0,WeatherDisplay:10.37,2013-02-27 17:47:00,
2013-02-27 12:52:00,71.2,58.8,29.99,NNE,20,4.2,9.2,65,0.00,OVC,,0.00,752.0,WeatherDisplay:10.37,2013-02-27 17:52:00,
2013-02-27 12:57:00,71.9,58.6,29.99,NNE,26,2.5,4.6,63,0.00,OVC,,0.00,828.0,WeatherDisplay:10.37,2013-02-27 17:57:00,
2013-02-27 13:02:00,71.6,58.8,29.98,WNW,283,3.1,3.5,64,0.00,OVC,,0.00,816.0,WeatherDisplay:10.37,2013-02-27 18:02:00,
2013-02-27 13:07:00,70.5,57.7,29.97,South,173,2.7,6.9,64,0.00,OVC,,0.00,714.0,WeatherDisplay:10.37,2013-02-27 18:07:00,
2013-02-27 13:12:00,71.2,58.4,29.97,West,271,1.6,4.0,64,0.00,OVC,,0.00,812.0,WeatherDisplay:10.37,2013-02-27 18:12:00,
2013-02-27 13:17:00,70.8,58.0,29.97,SW,231,2.4,3.0,64,0.00,OVC,,0.00,737.0,WeatherDisplay:10.37,2013-02-27 18:17:00,
2013-02-27 13:23:00,71.0,58.2,29.97,ENE,66,1.8,4.6,64,0.00,OVC,,0.00,817.0,WeatherDisplay:10.37,2013-02-27 18:23:00,
2013-02-27 13:28:00,71.2,57.5,29.97,WSW,251,2.7,3.0,62,0.00,OVC,,0.00,860.0,WeatherDisplay:10.37,2013-02-27 18:28:00,
2013-02-27 13:33:00,71.5,58.2,29.96,NE,38,2.0,8.1,63,0.00,OVC,,0.00,622.0,WeatherDisplay:10.37,2013-02-27 18:33:00,
2013-02-27 13:38:00,70.9,58.1,29.97,SW,219,1.3,5.8,64,0.00,OVC,,0.00,756.0,WeatherDisplay:10.37,2013-02-27 18:38:00,
2013-02-27 13:43:00,71.5,58.2,29.96,SW,217,1.4,3.5,63,0.00,OVC,,0.00,605.0,WeatherDisplay:10.37,2013-02-27 18:43:00,
2013-02-27 13:48:00,71.5,58.2,29.97,NNW,335,1.8,4.0,63,0.00,OVC,,0.00,735.0,WeatherDisplay:10.37,2013-02-27 18:48:00,
2013-02-27 13:53:00,70.3,57.5,29.96,SW,234,2.8,3.5,64,0.00,OVC,,0.00,656.0,WeatherDisplay:10.37,2013-02-27 18:53:00,
2013-02-27 13:58:00,70.7,58.4,29.95,SSW,199,3.3,4.0,65,0.00,OVC,,0.00,696.0,WeatherDisplay:10.37,2013-02-27 18:58:00,
2013-02-27 14:03:00,71.4,57.7,29.95,SSW,203,4.7,5.8,62,0.00,OVC,,0.00,752.0,WeatherDisplay:10.37,2013-02-27 19:03:00,
2013-02-27 14:08:00,70.7,58.4,29.95,ENE,65,0.1,1.2,65,0.00,OVC,,0.00,756.0,WeatherDisplay:10.37,2013-02-27 19:08:00,
2013-02-27 14:13:00,71.6,57.9,29.95,West,259,3.0,4.6,62,0.00,OVC,,0.00,696.0,WeatherDisplay:10.37,2013-02-27 19:13:00,
2013-02-27 14:18:00,71.1,58.3,29.94,SSW,211,1.2,2.3,64,0.00,OVC,,0.00,728.0,WeatherDisplay:10.37,2013-02-27 19:18:00,
2013-02-27 14:23:00,71.2,57.5,29.94,WSW,247,1.9,3.5,62,0.00,OVC,,0.00,350.0,WeatherDisplay:10.37,2013-02-27 19:23:00,
2013-02-27 14:28:00,71.0,57.3,29.94,WSW,238,0.3,2.3,62,0.00,OVC,,0.00,315.0,WeatherDisplay:10.37,2013-02-27 19:28:00,
2013-02-27 14:33:00,70.9,57.2,29.95,WSW,245,2.2,4.6,62,0.00,OVC,,0.00,267.0,WeatherDisplay:10.37,2013-02-27 19:33:00,
2013-02-27 14:38:00,70.3,57.1,29.94,West,281,1.0,2.3,63,0.00,OVC,,0.00,318.0,WeatherDisplay:10.37,2013-02-27 19:38:00,
2013-02-27 14:43:00,70.2,57.4,29.94,West,265,0.8,2.3,64,0.00,OVC,,0.00,466.0,WeatherDisplay:10.37,2013-02-27 19:43:00,
2013-02-27 14:48:00,70.4,57.6,29.94,WSW,248,4.6,10.4,64,0.00,OVC,,0.00,362.0,WeatherDisplay:10.37,2013-02-27 19:48:00,
2013-02-27 14:53:00,70.3,57.1,29.95,WNW,290,1.3,3.5,63,0.00,OVC,,0.00,383.0,WeatherDisplay:10.37,2013-02-27 19:53:00,
2013-02-27 14:58:00,71.0,58.2,29.94,NW,313,1.7,3.5,64,0.00,OVC,,0.00,582.0,WeatherDisplay:10.37,2013-02-27 19:58:00,
2013-02-27 15:03:00,71.3,57.6,29.95,NNW,331,0.7,3.5,62,0.00,OVC,,0.00,659.0,WeatherDisplay:10.37,2013-02-27 20:03:00,
2013-02-27 15:08:00,71.6,57.4,29.94,SSW,211,0.6,2.3,61,0.00,OVC,,0.00,633.0,WeatherDisplay:10.37,2013-02-27 20:08:00,
2013-02-27 15:13:00,72.0,58.7,29.95,WNW,283,2.1,4.0,63,0.00,OVC,,0.00,671.0,WeatherDisplay:10.37,2013-02-27 20:13:00,
2013-02-27 15:18:00,71.8,58.1,29.94,NE,40,2.7,4.6,62,0.00,OVC,,0.00,612.0,WeatherDisplay:10.37,2013-02-27 20:18:00,
2013-02-27 15:23:00,72.0,57.8,29.94,West,264,0.9,7.0,61,0.00,OVC,,0.00,392.0,WeatherDisplay:10.37,2013-02-27 20:23:00,
2013-02-27 15:28:00,71.5,57.8,29.94,WSW,254,3.6,7.0,62,0.00,OVC,,0.00,534.0,WeatherDisplay:10.37,2013-02-27 20:28:00,
2013-02-27 15:33:00,71.4,57.2,29.95,NNW,347,2.5,6.9,61,0.00,OVC,,0.00,598.0,WeatherDisplay:10.37,2013-02-27 20:33:00,
2013-02-27 15:38:00,71.4,57.7,29.95,NW,314,1.5,5.8,62,0.00,OVC,,0.00,610.0,WeatherDisplay:10.37,2013-02-27 20:38:00,
2013-02-27 15:43:00,70.4,57.2,29.95,WSW,251,2.3,4.6,63,0.00,OVC,,0.00,552.0,WeatherDisplay:10.37,2013-02-27 20:43:00,
2013-02-27 15:48:00,70.5,57.3,29.95,West,271,2.9,3.5,63,0.00,OVC,,0.00,541.0,WeatherDisplay:10.37,2013-02-27 20:48:00,
2013-02-27 15:53:00,70.1,57.4,29.95,North,360,4.1,10.4,64,0.00,OVC,,0.00,439.0,WeatherDisplay:10.37,2013-02-27 20:53:00,
2013-02-27 15:58:00,69.3,56.6,29.95,WSW,256,2.0,5.8,64,0.00,OVC,,0.00,534.0,WeatherDisplay:10.37,2013-02-27 20:58:00,
2013-02-27 16:03:00,69.2,56.9,29.95,West,265,2.4,3.5,65,0.00,OVC,,0.00,415.0,WeatherDisplay:10.37,2013-02-27 21:03:00,
2013-02-27 16:08:00,68.7,56.9,29.95,ENE,71,1.4,2.3,66,0.00,OVC,,0.00,257.0,WeatherDisplay:10.37,2013-02-27 21:08:00,
2013-02-27 16:13:00,68.4,56.6,29.95,SW,219,0.8,2.3,66,0.00,OVC,,0.00,227.0,WeatherDisplay:10.37,2013-02-27 21:13:00,
2013-02-27 16:18:00,67.9,56.5,29.95,NNW,333,2.5,3.5,67,0.00,OVC,,0.00,213.0,WeatherDisplay:10.37,2013-02-27 21:18:00,
2013-02-27 16:23:00,67.5,56.2,29.95,NW,313,1.2,3.5,67,0.00,OVC,,0.00,255.0,WeatherDisplay:10.37,2013-02-27 21:23:00,
2013-02-27 16:28:00,68.0,56.6,29.95,NE,40,2.6,3.5,67,0.00,OVC,,0.00,417.0,WeatherDisplay:10.37,2013-02-27 21:28:00,
2013-02-27 16:33:00,67.5,56.2,29.96,West,261,3.1,5.0,67,0.00,OVC,,0.00,369.0,WeatherDisplay:10.37,2013-02-27 21:33:00,
2013-02-27 16:38:00,67.6,56.2,29.96,NW,308,0.3,2.3,67,0.00,OVC,,0.00,304.0,WeatherDisplay:10.37,2013-02-27 21:38:00,
2013-02-27 16:43:00,67.3,56.0,29.96,South,186,1.3,4.6,67,0.00,OVC,,0.00,292.0,WeatherDisplay:10.37,2013-02-27 21:43:00,
2013-02-27 16:48:00,66.9,56.0,29.96,NE,40,0.9,3.5,68,0.00,OVC,,0.00,255.0,WeatherDisplay:10.37,2013-02-27 21:48:00,
2013-02-27 16:53:00,66.4,55.5,29.96,WNW,292,1.2,3.5,68,0.00,OVC,,0.00,257.0,WeatherDisplay:10.37,2013-02-27 21:53:00,
2013-02-27 16:58:00,66.4,55.9,29.96,North,5,1.2,4.6,69,0.00,OVC,,0.00,179.0,WeatherDisplay:10.37,2013-02-27 21:58:00,
2013-02-27 17:03:00,66.0,55.5,29.96,NE,39,5.4,6.9,69,0.00,CLR,,0.00,297.0,WeatherDisplay:10.37,2013-02-27 22:03:00,
2013-02-27 17:08:00,65.5,55.1,29.96,North,355,3.1,3.5,69,0.00,CLR,,0.00,276.0,WeatherDisplay:10.37,2013-02-27 22:08:00,
2013-02-27 17:13:00,65.6,55.5,29.96,NNW,333,2.1,3.5,70,0.00,CLR,,0.00,123.0,WeatherDisplay:10.37,2013-02-27 22:13:00,
2013-02-27 17:18:00,65.2,55.2,29.96,North,360,1.0,3.5,70,0.00,CLR,,0.00,156.0,WeatherDisplay:10.37,2013-02-27 22:18:00,
2013-02-27 17:23:00,64.8,55.2,29.95,North,355,1.6,3.5,71,0.00,CLR,,0.00,62.0,WeatherDisplay:10.37,2013-02-27 22:23:00,
2013-02-27 17:28:00,64.5,54.9,29.96,NNW,346,3.7,5.8,71,0.00,FEW,,0.00,54.0,WeatherDisplay:10.37,2013-02-27 22:28:00,
2013-02-27 17:33:00,64.1,55.3,29.96,NNW,342,2.4,3.5,73,0.00,SCT,,0.00,56.0,WeatherDisplay:10.37,2013-02-27 22:33:00,
2013-02-27 17:38:00,63.9,55.1,29.96,NW,307,0.7,4.6,73,0.00,SCT,,0.00,88.0,WeatherDisplay:10.37,2013-02-27 22:38:00,
2013-02-27 17:43:00,63.8,55.0,29.96,West,268,0.6,3.5,73,0.00,SCT,,0.00,63.0,WeatherDisplay:10.37,2013-02-27 22:43:00,
2013-02-27 17:48:00,63.7,54.9,29.96,NNW,342,1.3,2.3,73,0.00,BKN,,0.00,60.0,WeatherDisplay:10.37,2013-02-27 22:48:00,
2013-02-27 17:53:00,63.5,55.1,29.96,North,349,2.1,3.5,74,0.00,BKN,,0.00,51.0,WeatherDisplay:10.37,2013-02-27 22:53:00,
2013-02-27 17:58:00,63.3,54.9,29.96,North,355,0.0,2.3,74,0.00,BKN,,0.00,46.0,WeatherDisplay:10.37,2013-02-27 22:58:00,
2013-02-27 18:03:00,63.2,54.8,29.97,NNW,334,3.2,5.8,74,0.00,BKN,,0.00,39.0,WeatherDisplay:10.37,2013-02-27 23:03:00,
2013-02-27 18:08:00,63.0,54.6,29.97,North,355,0.8,3.5,74,0.00,BKN,,0.00,32.0,WeatherDisplay:10.37,2013-02-27 23:08:00,
2013-02-27 18:13:00,62.9,54.9,29.96,NE,36,1.7,5.8,75,0.00,BKN,,0.00,25.0,WeatherDisplay:10.37,2013-02-27 23:13:00,
2013-02-27 18:18:00,62.7,54.7,29.96,NNW,342,0.7,3.5,75,0.00,BKN,,0.00,18.0,WeatherDisplay:10.37,2013-02-27 23:18:00,
2013-02-27 18:23:00,62.5,54.5,29.96,North,5,2.2,2.3,75,0.00,,,0.00,7.0,WeatherDisplay:10.37,2013-02-27 23:23:00,
2013-02-27 18:28:00,62.3,54.6,29.96,NNW,336,1.1,3.5,76,0.00,,,0.00,0.0,WeatherDisplay:10.37,2013-02-27 23:28:00,
2013-02-27 18:33:00,62.1,54.4,29.97,NNW,341,1.5,3.5,76,0.00,,,0.00,0.0,WeatherDisplay:10.37,2013-02-27 23:33:00,
2013-02-27 18:38:00,61.8,54.5,29.97,NNW,333,0.8,3.5,77,0.00,,,0.00,0.0,WeatherDisplay:10.37,2013-02-27 23:38:00,
2013-02-27 18:43:00,61.6,54.3,29.98,North,350,2.7,3.5,77,0.00,,,0.00,0.0,WeatherDisplay:10.37,2013-02-27 23:43:00,
2013-02-27 18:48:00,61.4,54.5,29.97,NE,39,0.9,2.3,78,0.00,,,0.00,0.0,WeatherDisplay:10.37,2013-02-27 23:48:00,
2013-02-27 18:53:00,61.3,54.7,29.97,North,351,0.6,2.3,79,0.00,,,0.00,0.0,WeatherDisplay:10.37,2013-02-27 23:53:00,
2013-02-27 18:58:00,61.1,54.5,29.97,NNW,338,2.1,4.6,79,0.00,,,0.00,0.0,WeatherDisplay:10.37,2013-02-27 23:58:00,
2013-02-27 19:04:00,60.9,54.7,29.97,NNW,348,0.6,3.5,80,0.00,,,0.00,0.0,WeatherDisplay:10.37,2013-02-28 00:04:00,
2013-02-27 19:09:00,60.7,54.5,29.97,North,355,1.3,3.0,80,0.00,,,0.00,0.0,WeatherDisplay:10.37,2013-02-28 00:09:00,
2013-02-27 19:14:00,60.5,54.6,29.98,WNW,290,0.0,2.3,81,0.00,,,0.00,0.0,WeatherDisplay:10.37,2013-02-28 00:14:00,
2013-02-27 19:19:00,60.4,54.5,29.98,NNE,16,0.9,2.3,81,0.00,,,0.00,0.0,WeatherDisplay:10.37,2013-02-28 00:19:00,
2013-02-27 19:24:00,60.3,54.4,29.98,North,360,0.4,2.3,81,0.00,,,0.00,0.0,WeatherDisplay:10.37,2013-02-28 00:24:00,
2013-02-27 19:29:00,60.2,54.7,29.98,NNE,28,0.2,1.2,82,0.00,,,0.00,0.0,WeatherDisplay:10.37,2013-02-28 00:29:00,
2013-02-27 19:34:00,60.0,54.5,29.98,North,355,1.4,3.5,82,0.00,,,0.00,0.0,WeatherDisplay:10.37,2013-02-28 00:34:00,
2013-02-27 19:39:00,59.8,54.6,29.99,West,265,0.5,2.3,83,0.00,,,0.00,0.0,WeatherDisplay:10.37,2013-02-28 00:39:00,
2013-02-27 19:44:00,59.7,54.9,29.99,North,355,1.2,4.6,84,0.00,,,0.00,0.0,WeatherDisplay:10.37,2013-02-28 00:44:00,
2013-02-27 19:49:00,59.8,55.0,29.99,NNE,13,0.7,3.0,84,0.00,,,0.00,0.0,WeatherDisplay:10.37,2013-02-28 00:49:00,
2013-02-27 19:54:00,59.7,54.9,29.99,North,355,1.9,3.5,84,0.00,,,0.00,0.0,WeatherDisplay:10.37,2013-02-28 00:54:00,
2013-02-27 19:59:00,59.8,55.0,29.99,NNE,22,2.0,3.5,84,0.00,,,0.00,0.0,WeatherDisplay:10.37,2013-02-28 00:59:00,
2013-02-27 20:04:00,59.8,55.0,29.99,NNW,331,0.3,1.2,84,0.00,,,0.00,0.0,WeatherDisplay:10.37,2013-02-28 01:04:00,
2013-02-27 20:09:00,59.6,54.8,29.99,NNW,331,0.0,0.0,84,0.00,,,0.00,0.0,WeatherDisplay:10.37,2013-02-28 01:09:00,
2013-02-27 20:14:00,59.5,55.0,29.99,North,355,0.3,3.5,85,0.00,,,0.00,0.0,WeatherDisplay:10.37,2013-02-28 01:14:00,
2013-02-27 20:19:00,59.4,54.9,29.99,NNW,348,1.4,3.5,85,0.00,,,0.00,0.0,WeatherDisplay:10.37,2013-02-28 01:19:00,
2013-02-27 20:24:00,59.4,54.9,29.99,NNW,337,0.1,2.3,85,0.00,,,0.00,0.0,WeatherDisplay:10.37,2013-02-28 01:24:00,
2013-02-27 20:29:00,59.4,54.9,29.99,NNW,340,0.8,3.5,85,0.00,,,0.00,0.0,WeatherDisplay:10.37,2013-02-28 01:29:00,
2013-02-27 20:34:00,59.4,54.9,30.00,NW,325,0.6,2.3,85,0.00,,,0.00,0.0,WeatherDisplay:10.37,2013-02-28 01:34:00,
2013-02-27 20:39:00,59.4,54.9,29.99,North,355,0.0,0.0,85,0.00,,,0.00,0.0,WeatherDisplay:10.37,2013-02-28 01:39:00,
2013-02-27 20:44:00,59.3,54.8,29.99,North,355,0.0,0.0,85,0.00,,,0.00,0.0,WeatherDisplay:10.37,2013-02-28 01:44:00,
2013-02-27 20:49:00,59.1,54.9,29.99,North,355,0.0,0.0,86,0.00,,,0.00,0.0,WeatherDisplay:10.37,2013-02-28 01:49:00,
2013-02-27 20:54:00,59.1,54.9,29.99,West,262,0.0,1.2,86,0.00,,,0.00,0.0,WeatherDisplay:10.37,2013-02-28 01:54:00,
2013-02-27 20:59:00,58.9,54.7,29.99,West,262,0.0,0.0,86,0.00,,,0.00,0.0,WeatherDisplay:10.37,2013-02-28 01:59:00,
2013-02-27 21:04:00,58.8,54.9,29.99,West,266,0.0,0.0,87,0.00,,,0.00,0.0,WeatherDisplay:10.37,2013-02-28 02:04:00,
2013-02-27 21:09:00,58.6,55.1,30.00,West,266,0.0,0.0,88,0.00,,,0.00,0.0,WeatherDisplay:10.37,2013-02-28 02:09:00,
2013-02-27 21:14:00,58.6,55.1,29.99,West,266,0.0,0.0,88,0.00,,,0.00,0.0,WeatherDisplay:10.37,2013-02-28 02:14:00,
2013-02-27 21:19:00,58.6,55.1,30.00,West,266,0.0,0.0,88,0.00,,,0.00,0.0,WeatherDisplay:10.37,2013-02-28 02:19:00,
2013-02-27 21:24:00,58.5,54.6,30.00,West,266,0.0,1.2,87,0.00,,,0.00,0.0,WeatherDisplay:10.37,2013-02-28 02:24:00,
2013-02-27 21:29:00,58.5,55.0,30.00,West,266,0.0,0.0,88,0.00,,,0.00,0.0,WeatherDisplay:10.37,2013-02-28 02:29:00,
2013-02-27 21:34:00,58.2,54.7,30.00,West,266,0.0,0.0,88,0.00,,,0.00,0.0,WeatherDisplay:10.37,2013-02-28 02:34:00,
2013-02-27 21:39:00,58.1,54.6,29.99,West,266,0.0,0.0,88,0.00,,,0.00,0.0,WeatherDisplay:10.37,2013-02-28 02:39:00,
2013-02-27 21:44:00,58.0,54.5,29.99,West,266,0.0,0.0,88,0.00,,,0.00,0.0,WeatherDisplay:10.37,2013-02-28 02:44:00,
2013-02-27 21:49:00,57.8,54.6,30.00,West,266,0.3,1.0,89,0.00,,,0.00,0.0,WeatherDisplay:10.37,2013-02-28 02:49:00,
2013-02-27 21:54:00,57.7,54.5,29.99,West,266,0.0,0.0,89,0.00,,,0.00,0.0,WeatherDisplay:10.37,2013-02-28 02:54:00,
2013-02-27 21:59:00,57.7,54.8,30.00,West,266,0.0,0.0,90,0.00,,,0.00,0.0,WeatherDisplay:10.37,2013-02-28 02:59:00,
2013-02-27 22:04:00,57.7,54.8,30.00,West,266,0.0,0.0,90,0.00,,,0.00,0.0,WeatherDisplay:10.37,2013-02-28 03:04:00,
2013-02-27 22:09:00,57.9,55.0,30.00,West,266,0.0,0.0,90,0.00,,,0.00,0.0,WeatherDisplay:10.37,2013-02-28 03:09:00,
2013-02-27 22:14:00,58.1,55.2,30.00,West,266,0.0,0.0,90,0.00,,,0.00,0.0,WeatherDisplay:10.37,2013-02-28 03:14:00,
2013-02-27 22:19:00,58.4,55.2,30.00,NNW,327,0.0,1.2,89,0.00,,,0.00,0.0,WeatherDisplay:10.37,2013-02-28 03:19:00,
2013-02-27 22:24:00,58.6,55.1,30.00,North,5,0.0,0.0,88,0.00,,,0.00,0.0,WeatherDisplay:10.37,2013-02-28 03:24:00,
2013-02-27 22:29:00,58.7,55.2,30.00,North,5,0.0,0.0,88,0.00,,,0.00,0.0,WeatherDisplay:10.37,2013-02-28 03:29:00,
2013-02-27 22:34:00,58.9,55.0,30.00,North,5,0.2,2.3,87,0.00,,,0.00,0.0,WeatherDisplay:10.37,2013-02-28 03:34:00,
2013-02-27 22:39:00,58.9,55.0,30.00,WNW,282,0.6,1.2,87,0.00,,,0.00,0.0,WeatherDisplay:10.37,2013-02-28 03:39:00,
2013-02-27 22:44:00,58.9,55.0,30.00,WNW,282,0.0,0.0,87,0.00,,,0.00,0.0,WeatherDisplay:10.37,2013-02-28 03:44:00,
2013-02-27 22:49:00,58.7,55.2,30.00,WNW,282,0.0,0.0,88,0.00,,,0.00,0.0,WeatherDisplay:10.37,2013-02-28 03:49:00,
2013-02-27 22:54:00,58.6,55.1,30.01,WNW,291,0.1,1.2,88,0.00,,,0.00,0.0,WeatherDisplay:10.37,2013-02-28 03:54:00,
2013-02-27 22:59:00,58.6,55.1,30.00,WNW,291,0.0,0.0,88,0.00,,,0.00,0.0,WeatherDisplay:10.37,2013-02-28 03:59:00,
2013-02-27 23:04:00,58.7,55.2,30.00,WNW,291,0.0,0.0,88,0.00,,,0.00,0.0,WeatherDisplay:10.37,2013-02-28 04:04:00,
2013-02-27 23:09:00,58.7,55.2,30.00,WNW,291,0.0,0.0,88,0.00,,,0.00,0.0,WeatherDisplay:10.37,2013-02-28 04:09:00,
2013-02-27 23:14:00,58.7,55.2,30.00,WNW,291,0.0,2.3,88,0.00,,,0.00,0.0,WeatherDisplay:10.37,2013-02-28 04:14:00,
2013-02-27 23:19:00,58.8,55.3,30.00,WNW,291,0.0,1.2,88,0.00,,,0.00,0.0,WeatherDisplay:10.37,2013-02-28 04:19:00,
2013-02-27 23:24:00,58.8,55.3,30.00,WNW,291,0.0,0.0,88,0.00,,,0.00,0.0,WeatherDisplay:10.37,2013-02-28 04:24:00,
2013-02-27 23:29:00,58.8,55.3,30.00,WNW,291,0.0,0.0,88,0.00,,,0.00,0.0,WeatherDisplay:10.37,2013-02-28 04:29:00,
2013-02-27 23:34:00,58.8,55.3,30.00,WNW,291,0.0,0.0,88,0.00,,,0.00,0.0,WeatherDisplay:10.37,2013-02-28 04:34:00,
2013-02-27 23:39:00,58.7,55.2,30.00,WNW,291,0.0,0.0,88,0.00,,,0.00,0.0,WeatherDisplay:10.37,2013-02-28 04:39:00,
2013-02-27 23:44:00,58.6,55.4,30.00,WNW,291,0.0,0.0,89,0.00,,,0.00,0.0,WeatherDisplay:10.37,2013-02-28 04:44:00,
2013-02-27 23:49:00,58.6,55.4,30.00,WNW,291,0.0,0.0,89,0.00,,,0.00,0.0,WeatherDisplay:10.37,2013-02-28 04:49:00,
2013-02-27 23:54:00,58.6,55.4,30.00,WNW,291,0.0,0.0,89,0.00,,,0.00,0.0,WeatherDisplay:10.37,2013-02-28 04:54:00,
2013-02-27 23:59:00,58.7,55.5,30.00,WNW,291,0.0,0.0,89,0.00,,,0.00,0.0,WeatherDisplay:10.37,2013-02-28 04:59:00,